Date String (YYYY-MM-DD hh:mm:ss) UTC,Instrument flags,Ambient pressure (hPa),Sample flow (lpm),Bypass flow (lpm),Sample temperature (°C),Ambient temperature (°C),ASC tube jacket temperature (°C),LED temperature (°C),Box temperature (°C),Sample RH (%),Span deviation,Mass concentration (μg/m³),Mass concentration (μg/m³),Mass concentration (μg/m³)
DateTimeUTC,F1_M11,P_M11,Q1_M11,Q2_M11,T1_M11,T2_M11,T3_M11,T4_M11,T5_M11,U1_M11,ZSPAN_M11,X0_M11,X2_M11,X1_M11
2022-09-16 15:00:00,,0826.6,5.00,0.00,30.6,29.2,00.0,39.4,32.4,25.3,0000.0,0009.71,0004.05,0003.69
2022-09-16 15:01:00,,0826.6,5.00,0.00,30.7,29.2,00.0,39.4,32.4,25.6,0000.0,0009.87,0004.06,0003.70
2022-09-16 15:02:00,,0826.7,5.00,0.00,30.7,29.3,00.0,39.4,32.4,25.8,0000.0,0009.59,0004.09,0003.72
2022-09-16 15:03:00,,0826.6,4.99,0.00,30.7,29.3,00.0,39.4,32.4,25.9,0000.0,0009.78,0004.16,0003.74
2022-09-16 15:04:00,,0826.6,5.01,0.00,30.7,29.3,00.0,39.4,32.4,25.6,0000.0,0009.98,0004.19,0003.77
2022-09-16 15:05:00,,0826.6,5.00,0.00,30.7,29.3,00.0,39.4,32.5,25.7,0000.0,0010.02,0004.21,0003.80
2022-09-16 15:06:00,,0826.6,4.99,0.00,30.7,29.3,00.0,39.4,32.5,26.0,0000.0,0009.84,0004.33,0003.82
2022-09-16 15:07:00,,0826.6,5.00,0.00,30.7,29.3,00.0,39.5,32.5,25.8,0000.0,0009.98,0004.39,0003.84
2022-09-16 15:08:00,,0826.5,5.00,0.00,30.7,29.3,00.0,39.5,32.5,25.4,0000.0,0010.32,0004.44,0003.86
2022-09-16 15:09:00,,0826.5,5.00,0.00,30.7,29.3,00.0,39.5,32.5,25.4,0000.0,0010.40,0004.46,0003.87
2022-09-16 15:10:00,,0826.5,4.99,0.00,30.7,29.3,00.0,39.5,32.5,25.4,0000.0,0009.99,0004.49,0003.89
2022-09-16 15:11:00,,0826.6,5.01,0.00,30.7,29.4,00.0,39.5,32.5,25.3,0000.1,0009.35,0004.51,0003.89
2022-09-16 15:12:00,,0826.5,5.00,0.00,30.7,29.4,00.0,39.5,32.5,25.4,0000.8,0009.63,0004.53,0003.89
2022-09-16 15:13:00,,0826.6,5.01,0.00,30.7,29.4,00.0,39.5,32.5,25.5,0001.2,0009.95,0004.55,0003.89
2022-09-16 15:14:00,,0826.6,4.99,0.00,30.8,29.4,00.0,39.5,32.5,25.5,0001.7,0010.25,0004.52,0003.89
2022-09-16 15:15:00,,0826.6,5.00,0.00,30.8,29.4,00.0,39.5,32.5,25.3,0002.1,0010.20,0004.53,0003.87
2022-09-16 15:16:00,,0826.6,4.99,0.00,30.8,29.5,00.0,39.5,32.6,25.4,0002.1,0010.40,0004.56,0003.86
2022-09-16 15:17:00,,0826.6,5.02,0.00,30.8,29.5,00.0,39.5,32.6,25.6,0002.1,0010.38,0004.50,0003.85
2022-09-16 15:18:00,,0826.6,5.00,0.00,30.8,29.5,00.0,39.5,32.6,25.5,0002.1,0010.33,0004.45,0003.84
2022-09-16 15:19:00,,0826.6,5.01,0.00,30.8,29.5,00.0,39.5,32.6,25.9,0001.9,0010.21,0004.44,0003.83
2022-09-16 15:20:00,,0826.6,4.99,0.00,30.8,29.5,00.0,39.5,32.6,26.2,0002.1,0010.03,0004.41,0003.81
2022-09-16 15:21:00,,0826.6,5.01,0.00,30.8,29.4,00.0,39.6,32.6,25.7,0002.1,0009.93,0004.38,0003.80
2022-09-16 15:22:00,,0826.6,5.00,0.00,30.9,28.3,00.0,39.5,32.6,25.6,0000.6,0009.91,0004.38,0003.79
2022-09-16 15:23:00,,0826.5,5.00,0.00,30.8,27.6,00.0,39.5,32.5,25.7,0000.0,0009.49,0004.39,0003.80
2022-09-16 15:24:00,,0826.5,5.00,0.00,30.8,27.6,00.0,39.5,32.4,25.9,0000.0,0009.14,0004.38,0003.79
2022-09-16 15:25:00,,0826.5,5.01,0.00,30.7,27.9,00.0,39.4,32.3,26.2,0000.0,0008.68,0004.38,0003.79
2022-09-16 15:26:00,,0826.5,4.99,0.00,30.6,28.1,00.0,39.4,32.2,26.4,0000.0,0008.62,0004.37,0003.79
2022-09-16 15:27:00,,0826.5,5.01,0.00,30.6,28.3,00.0,39.4,32.2,26.6,0000.0,0008.34,0004.35,0003.79
2022-09-16 15:28:00,,0826.5,4.99,0.00,30.6,28.5,00.0,39.3,32.2,26.2,0000.0,0008.15,0004.34,0003.80
2022-09-16 15:29:00,,0826.5,5.00,0.00,30.6,28.7,00.0,39.3,32.3,26.5,0000.0,0008.39,0004.37,0003.81
2022-09-16 15:30:00,,0826.5,5.01,0.00,30.6,28.8,00.0,39.3,32.3,26.5,0000.0,0008.62,0004.39,0003.81
2022-09-16 15:31:00,,0826.5,5.01,0.00,30.5,28.9,00.0,39.3,32.3,26.7,0000.0,0009.05,0004.42,0003.82
2022-09-16 15:32:00,,0826.6,5.00,0.00,30.6,29.0,00.0,39.3,32.3,26.6,0000.0,0009.59,0004.43,0003.82
2022-09-16 15:33:00,,0826.5,4.99,0.00,30.6,29.1,00.0,39.3,32.3,26.3,0000.0,0009.79,0004.46,0003.82
2022-09-16 15:34:00,,0826.5,5.01,0.00,30.6,29.1,00.0,39.3,32.3,26.4,0000.0,0009.79,0004.45,0003.83
2022-09-16 15:35:00,,0826.5,4.99,0.00,30.6,29.2,00.0,39.3,32.4,26.1,0000.0,0010.68,0004.44,0003.83
2022-09-16 15:36:00,,0826.6,5.02,0.00,30.6,29.2,00.0,39.3,32.4,26.1,0000.0,0011.43,0004.47,0003.84
2022-09-16 15:37:00,,0826.5,5.03,0.00,30.6,29.2,00.0,39.3,32.4,26.5,0000.0,0011.48,0004.49,0003.85
2022-09-16 15:38:00,,0826.5,5.01,0.00,30.6,29.3,00.0,39.3,32.4,26.3,0000.0,0011.46,0004.48,0003.85
2022-09-16 15:39:00,,0826.5,4.99,0.00,30.6,29.3,00.0,39.3,32.4,26.0,0000.0,0011.48,0004.49,0003.85
2022-09-16 15:40:00,,0826.5,4.99,0.00,30.7,29.4,00.0,39.4,32.4,26.4,0000.0,0011.55,0004.48,0003.84
2022-09-16 15:41:00,,0826.5,5.01,0.00,30.7,29.2,00.0,39.4,32.5,26.3,0000.0,0011.45,0004.49,0003.85
2022-09-16 15:42:00,,0826.5,5.01,0.00,30.7,28.3,00.0,39.4,32.5,26.5,0000.4,0011.30,0004.46,0003.86
2022-09-16 15:43:00,,0826.5,5.00,0.00,30.7,27.3,00.0,39.3,32.4,26.6,0000.8,0011.33,0004.51,0003.87
2022-09-16 15:44:00,,0826.5,5.00,0.00,30.6,27.3,00.0,39.3,32.3,26.8,0000.1,0010.88,0004.52,0003.87
2022-09-16 15:45:00,,0826.5,5.00,0.00,30.5,27.5,00.0,39.2,32.1,26.7,0000.1,0010.45,0004.52,0003.88
2022-09-16 15:46:00,,0826.5,5.00,0.00,30.4,27.8,00.0,39.2,32.1,26.8,0000.0,0010.27,0004.54,0003.88
2022-09-16 15:47:00,,0826.5,5.00,0.00,30.4,28.1,00.0,39.2,32.1,26.5,0000.4,0009.43,0004.56,0003.88
2022-09-16 15:48:00,,0826.5,5.00,0.00,30.4,28.3,00.0,39.1,32.1,26.5,0000.8,0008.75,0004.50,0003.87
2022-09-16 15:49:00,,0826.5,5.00,0.00,30.4,28.5,00.0,39.1,32.1,26.1,0000.0,0008.94,0004.55,0003.88
2022-09-16 15:50:00,,0826.5,5.00,0.00,30.4,28.6,00.0,39.1,32.1,26.0,0000.0,0009.12,0004.60,0003.88
2022-09-16 15:51:00,,0826.5,5.01,0.00,30.4,28.7,00.0,39.1,32.1,25.3,0000.0,0009.10,0004.63,0003.88
2022-09-16 15:52:00,,0826.5,5.00,0.00,30.4,28.8,00.0,39.1,32.2,25.0,0000.0,0009.03,0004.59,0003.87
2022-09-16 15:53:00,,0826.5,5.01,0.00,30.4,28.9,00.0,39.1,32.2,25.0,0000.0,0008.83,0004.55,0003.85
2022-09-16 15:54:00,,0826.5,4.99,0.00,30.4,29.0,00.0,39.1,32.2,24.9,0000.0,0008.81,0004.50,0003.84
2022-09-16 15:55:00,,0826.4,5.02,0.00,30.4,29.1,00.0,39.2,32.2,24.7,0000.0,0009.61,0004.45,0003.81
2022-09-16 15:56:00,,0826.5,4.99,0.00,30.4,29.1,00.0,39.2,32.2,25.0,0000.0,0009.52,0004.40,0003.79
2022-09-16 15:57:00,,0826.5,5.01,0.00,30.5,29.1,00.0,39.2,32.3,25.1,0000.0,0009.36,0004.34,0003.76
2022-09-16 15:58:00,,0826.5,4.99,0.00,30.5,29.2,00.0,39.2,32.3,24.7,0000.0,0009.33,0004.29,0003.74
2022-09-16 15:59:00,,0826.4,5.01,0.00,30.5,29.2,00.0,39.2,32.4,25.2,0000.0,0009.36,0004.29,0003.72
